DW4236 Weather Reports


time (UTC)temp
C
wind
direction
speed
KPH
gust
KPH
rain 1hr
cm
rain 24hr
cm
rain mn
cm
humidity
%
barometer
mb
20260502212604 15 309 9.7 16.1 0.00 0.25 0.25 37 1011.4
20260502212104 15 343 8.0 19.3 0.00 0.25 0.25 39 1011.4
20260502211104 14 35 0.0 3.2 0.00 0.25 0.25 50 1011.3
20260502210105 15 57 0.0 4.8 0.00 0.25 0.25 49 1011.2
20260502205106 15 121 1.6 8.0 0.00 0.25 0.25 55 1011.1
20260502204605 14 128 3.2 11.3 0.00 0.25 0.25 54 1011.1
20260502204104 14 132 3.2 8.0 0.00 0.25 0.25 54 1011.1
20260502203104 14 163 6.4 12.9 0.00 0.25 0.25 51 1011.2
20260502202605 14 126 4.8 9.7 0.00 0.25 0.25 54 1011.4
20260502202105 14 131 3.2 4.8 0.00 0.25 0.25 55 1011.4
20260502201604 14 114 3.2 8.0 0.00 0.25 0.25 56 1011.5
20260502201105 13 128 4.8 8.0 0.00 0.25 0.25 55 1011.5
20260502200605 13 124 3.2 8.0 0.00 0.25 0.25 55 1011.6
20260502200106 13 124 4.8 8.0 0.00 0.25 0.25 55 1011.7
20260502195604 13 139 3.2 14.5 0.00 0.25 0.25 55 1011.7
20260502195104 13 37 3.2 11.3 0.00 0.25 0.25 56 1011.7
20260502194604 14 120 4.8 19.3 0.00 0.25 0.25 55 1011.8
20260502194104 14 209 1.6 4.8 0.00 0.25 0.25 55 1011.7
20260502193104 14 191 3.2 4.8 0.00 0.25 0.25 56 1011.9
20260502192604 13 177 0.0 4.8 0.00 0.25 0.25 62 1012.0
20260502192105 13 190 3.2 9.7 0.00 0.25 0.25 63 1012.1
20260502191604 13 185 1.6 4.8 0.00 0.25 0.25 64 1012.2
20260502191105 13 185 4.8 11.3 0.00 0.25 0.25 61 1012.2
20260502190605 13 160 1.6 4.8 0.00 0.25 0.25 64 1012.2
20260502190104 13 155 3.2 9.7 0.00 0.25 0.25 66 1012.3
20260502185604 13 111 4.8 9.7 0.00 0.25 0.25 64 1012.4
20260502185104 13 138 3.2 9.7 0.00 0.25 0.25 65 1012.4
20260502184605 13 139 3.2 4.8 0.00 0.25 0.25 67 1012.5
20260502184105 13 159 3.2 8.0 0.00 0.25 0.25 66 1012.5
20260502183604 13 128 8.0 16.1 0.00 0.25 0.25 67 1012.6
20260502183104 14 183 4.8 16.1 0.00 0.25 0.25 66 1012.5
20260502182104 13 192 1.6 8.0 0.00 0.25 0.25 70 1012.6
20260502181604 13 103 3.2 9.7 0.00 0.25 0.25 71 1012.7
20260502181104 13 131 6.4 19.3 0.00 0.25 0.25 70 1012.6
20260502180604 13 89 9.7 19.3 0.00 0.25 0.25 69 1012.6
20260502180104 13 85 4.8 16.1 0.00 0.25 0.25 70 1012.5
20260502170104 12 135 6.4 12.9 0.00 0.25 0.25 75 1013.2
20260502164104 12 99 6.4 16.1 0.00 0.25 0.25 78 1013.4
20260502163105 10 142 3.2 12.9 0.00 0.25 0.25 79 1013.6
20260502162605 10 186 6.4 14.5 0.00 0.25 0.25 79 1013.6
20260502162105 10 142 8.0 12.9 0.00 0.25 0.25 79 1013.7
20260502161604 10 100 4.8 14.5 0.00 0.25 0.25 79 1013.6
20260502150604 11 20 4.8 9.7 0.00 0.25 0.25 77 1013.8
20260502150104 11 28 1.6 4.8 0.00 0.25 0.25 78 1013.8
20260502140104 9 312 4.8 14.5 0.00 0.25 0.25 82 1013.8
20260502130104 10 317 6.4 14.5 0.00 0.25 0.25 90 1013.8
20260502123104 9 310 3.2 9.7 0.00 0.25 0.25 93 1013.6
20260502122603 9 302 4.8 12.9 0.00 0.25 0.25 93 1013.6
20260502122104 9 283 3.2 9.7 0.00 0.25 0.25 93 1013.6
20260502121604 9 303 4.8 9.7 0.00 0.25 0.25 93 1013.5
20260502121106 9 307 4.8 8.0 0.00 0.25 0.25 93 1013.6
20260502120604 9 327 0.0 4.8 0.00 0.25 0.25 94 1013.5
20260502115604 9 344 0.0 4.8 0.00 0.25 0.25 94 1013.7
20260502115104 9 290 1.6 9.7 0.00 0.25 0.25 94 1013.7
20260502114605 9 316 4.8 11.3 0.00 0.25 0.25 94 1013.6
20260502113604 9 314 1.6 9.7 0.00 0.25 0.25 94 1013.6
20260502113104 9 304 3.2 4.8 0.00 0.25 0.25 94 1013.6
20260502112605 9 346 1.6 4.8 0.00 0.25 0.25 94 1013.5
20260502111604 8 354 0.0 3.2 0.00 0.25 0.25 94 1013.4
20260502111105 8 354 1.6 4.8 0.00 0.25 0.25 94 1013.5
20260502110605 8 355 0.0 3.2 0.00 0.25 0.25 94 1013.3
20260502105104 8 355 0.0 0.0 0.00 0.25 0.25 94 1013.2
20260502104604 8 355 0.0 0.0 0.00 0.25 0.25 93 1013.1
20260502104103 8 355 0.0 0.0 0.00 0.25 0.25 93 1013.1
20260502103604 8 355 0.0 0.0 0.00 0.25 0.25 93 1013.0
20260502103104 8 355 0.0 0.0 0.03 0.25 0.25 93 1012.8
20260502102104 8 355 0.0 0.0 0.03 0.25 0.25 93 1012.9
20260502101604 8 355 0.0 0.0 0.03 0.25 0.25 93 1012.9
20260502101103 8 355 0.0 0.0 0.05 0.25 0.25 93 1012.8
20260502100604 8 355 0.0 0.0 0.05 0.25 0.25 93 1012.8
20260502100105 8 355 0.0 0.0 0.05 0.25 0.25 93 1012.9
20260502091105 8 355 0.0 0.0 0.15 0.20 0.20 93 1012.6
20260502090604 8 355 0.0 0.0 0.15 0.20 0.20 92 1012.7
20260502090104 8 355 0.0 0.0 0.15 0.20 0.20 92 1012.8
20260502080104 9 356 0.0 0.0 0.00 0.05 0.05 91 1012.6
20260502071103 9 356 0.0 0.0 0.00 0.05 0.05 90 1013.3
20260502070604 9 356 0.0 0.0 0.03 0.05 0.05 90 1013.4
20260502070104 9 356 0.0 0.0 0.03 0.05 0.05 90 1013.4
20260502065604 9 356 0.0 0.0 0.05 0.05 0.05 90 1013.4
20260502064605 9 356 0.0 0.0 0.05 0.05 0.05 89 1013.4
20260502064104 9 356 0.0 1.6 0.05 0.05 0.05 89 1013.5
20260502063604 9 348 3.2 4.8 0.05 0.05 0.05 89 1013.6
20260502063105 9 316 1.6 4.8 0.05 0.05 0.05 89 1013.6
20260502062603 9 316 0.0 3.2 0.05 0.05 0.05 89 1013.4
20260502061603 9 316 0.0 3.2 0.05 0.05 0.05 88 1013.4
20260502061104 10 316 1.6 3.2 0.05 0.05 0.05 88 1013.6
20260502055605 10 317 0.0 0.0 0.00 0.00 0.00 88 1013.5
20260502055104 10 317 0.0 0.0 0.00 0.00 0.00 87 1013.3
20260502054604 10 317 0.0 0.0 0.00 0.00 0.00 86 1013.2
20260502053604 10 317 0.0 0.0 0.00 0.00 0.00 85 1013.2
20260502052604 10 317 0.0 3.2 0.00 0.00 0.00 85 1013.3
20260502052104 10 317 0.0 1.6 0.00 0.00 0.00 84 1013.3
20260502051604 10 317 1.6 3.2 0.00 0.00 0.00 84 1013.6
20260502050605 10 295 0.0 3.2 0.00 0.00 0.00 84 1013.5
20260502045604 10 295 0.0 0.0 0.00 0.00 0.00 83 1013.1
20260502045104 10 295 0.0 0.0 0.00 0.00 0.00 83 1013.0
20260502044605 10 295 0.0 0.0 0.00 0.00 0.00 82 1013.0
20260502044104 10 295 0.0 0.0 0.00 0.00 0.00 82 1013.0
20260502043103 10 295 0.0 0.0 0.00 0.00 0.00 81 1012.9
20260502042604 10 295 0.0 0.0 0.00 0.00 0.00 81 1013.1
20260502042104 10 295 0.0 0.0 0.00 0.00 0.00 81 1013.3
20260502041604 10 295 0.0 0.0 0.00 0.00 0.00 80 1013.2
20260502041104 10 295 0.0 0.0 0.00 0.00 0.00 80 1013.1
20260502040105 10 295 0.0 0.0 0.00 0.00 0.00 80 1013.1
20260502035104 10 295 0.0 0.0 0.00 0.00 0.00 80 1013.1
20260502034604 10 295 0.0 0.0 0.00 0.00 0.00 80 1012.9
20260502034103 10 295 0.0 0.0 0.00 0.00 0.00 79 1012.9
20260502033604 10 295 0.0 0.0 0.00 0.00 0.00 79 1013.1
20260502033105 10 295 0.0 0.0 0.00 0.00 0.00 79 1013.0
20260502032104 10 295 0.0 0.0 0.00 0.00 0.00 78 1013.1
20260502031604 10 295 0.0 0.0 0.00 0.00 0.00 78 1013.1
20260502031104 10 295 0.0 0.0 0.00 0.00 0.00 78 1013.0
20260502030604 10 295 0.0 0.0 0.00 0.00 0.00 78 1013.2
20260502030105 10 295 0.0 0.0 0.00 0.00 0.00 78 1013.3
20260502025604 10 295 0.0 0.0 0.00 0.00 0.00 78 1013.3
20260502025104 10 295 0.0 0.0 0.00 0.00 0.00 78 1013.3
20260502024603 10 295 0.0 0.0 0.00 0.00 0.00 77 1013.3
20260502024104 10 295 0.0 1.6 0.00 0.00 0.00 77 1013.3
20260502023604 10 295 0.0 3.2 0.00 0.00 0.00 76 1013.2
20260502023104 10 295 0.0 0.0 0.00 0.00 0.00 76 1013.2
20260502021604 10 295 0.0 0.0 0.00 0.00 0.00 74 1013.1
20260502021103 10 295 0.0 0.0 0.00 0.00 0.00 74 1013.0
20260502020603 10 295 0.0 0.0 0.00 0.00 0.00 74 1013.2
20260502020105 10 295 0.0 0.0 0.00 0.00 0.00 73 1013.1
20260502015604 10 295 0.0 0.0 0.00 0.00 0.00 72 1013.0
20260502015103 11 295 0.0 0.0 0.00 0.00 0.00 71 1012.8
20260502014603 11 295 0.0 0.0 0.00 0.00 0.00 71 1012.8
20260502014105 11 295 0.0 0.0 0.00 0.00 0.00 70 1012.8
20260502013603 11 295 0.0 0.0 0.00 0.00 0.00 69 1012.7
20260502012604 11 295 0.0 0.0 0.00 0.00 0.00 68 1012.8
20260502012104 11 295 0.0 0.0 0.00 0.00 0.00 67 1012.8
20260502011104 12 295 0.0 0.0 0.00 0.00 0.00 65 1012.8
20260502010604 12 295 0.0 1.6 0.00 0.00 0.00 63 1012.8
20260502010103 12 295 0.0 0.0 0.00 0.00 0.00 62 1012.8
20260502005604 12 295 0.0 0.0 0.00 0.00 0.00 62 1012.8
20260502005104 12 295 0.0 3.2 0.00 0.00 0.00 62 1012.9
20260502004105 13 295 0.0 1.6 0.00 0.00 0.00 61 1012.7
20260502003605 13 295 0.0 0.0 0.00 0.00 0.00 59 1012.6
20260502003104 13 295 0.0 0.0 0.00 0.00 0.00 57 1012.5
20260502002605 13 295 0.0 3.2 0.00 0.00 0.00 57 1012.4
20260502002105 13 295 0.0 3.2 0.00 0.00 0.00 56 1012.3
20260502001105 13 295 1.6 8.0 0.00 0.00 0.00 56 1012.3
20260502000604 14 286 1.6 4.8 0.00 0.00 0.00 57 1012.3
20260502000104 14 283 1.6 9.7 0.00 0.00 0.00 57 1012.3
20260501235603 14 232 1.6 3.2 0.00 0.00 0.00 55 1012.4
20260501234604 15 238 1.6 8.0 0.00 0.00 0.00 53 1012.3
20260501233604 15 276 8.0 20.9 0.00 0.00 0.00 50 1012.2
20260501233104 15 290 1.6 4.8 0.00 0.00 0.00 51 1012.2
20260501232605 15 295 3.2 12.9 0.00 0.00 0.00 49 1012.0
20260501232104 15 286 4.8 11.3 0.00 0.00 0.00 48 1012.0
20260501231605 15 299 4.8 12.9 0.00 0.00 0.00 49 1011.9
20260501231104 15 294 9.7 22.5 0.00 0.00 0.00 47 1011.8
20260501230604 15 301 3.2 14.5 0.00 0.00 0.00 46 1011.8
20260501225605 16 289 9.7 20.9 0.00 0.00 0.00 46 1011.6
20260501225103 16 258 4.8 12.9 0.00 0.00 0.00 45 1011.5
20260501224604 16 341 11.3 19.3 0.00 0.00 0.00 44 1011.5
20260501224105 16 296 6.4 14.5 0.00 0.00 0.00 42 1011.4
20260501223604 16 326 1.6 9.7 0.00 0.00 0.00 41 1011.2
20260501223104 16 293 3.2 4.8 0.00 0.00 0.00 41 1011.2
20260501221604 17 303 0.0 8.0 0.00 0.00 0.00 40 1011.1
20260501221104 17 303 3.2 11.3 0.00 0.00 0.00 42 1011.2
20260501220604 17 346 4.8 8.0 0.00 0.00 0.00 41 1011.2
20260501220104 17 336 3.2 9.7 0.00 0.00 0.00 40 1011.2
20260501215104 17 345 3.2 4.8 0.00 0.00 0.00 39 1011.2
20260501214604 17 354 3.2 14.5 0.00 0.00 0.00 39 1011.1
20260501214103 17 294 6.4 12.9 0.00 0.00 0.00 38 1011.1
20260501213604 17 312 4.8 16.1 0.00 0.00 0.00 39 1011.0
20260501213105 17 288 8.0 14.5 0.00 0.00 0.00 38 1010.9